Temperature
7 8 8 8 9 9 9 9 9 9 10 10 10 10 10 10 10 10 10 10 10 10 10 10 10 10 10 10 10 10 10 10 10 10 10 10 9 9 9 8 8 8 7
7 7 7 7 8 8 8 8 9 9 9 9 9 9 9 9 9 9 9 10 10 10 10 10 10 10 10 10 9 9 9 9 9 9 9 9 9 8 8 8 8 7 7
6 7 7 7 7 7 8 8 8 8 8 8 9 8 9 9 9 9 9 9 9 9 9 9 9 9 9 9 9 9 9 9 8 8 8 8 8 8 7 7 7 7 6
6 6 6 6 6 7 7 7 7 8 8 8 8 8 8 8 8 8 8 8 8 8 8 8 8 8 8 8 8 8 8 8 8 7 7 7 7 7 7 7 6 6 6
5 5 5 5 6 6 6 7 7 7 7 7 7 7 7 7 7 7 7 7 7 7 7 7 7 7 7 7 7 7 7 7 7 7 6 6 6 6 6 6 6 5 5
4 4 4 5 5 5 5 5 6 6 6 6 6 6 6 6 6 6 6 6 6 6 6 6 6 6 6 6 7 7 7 6 6 6 6 6 6 6 6 6 5 5 4
3 4 4 4 4 4 4 5 5 5 5 5 5 5 5 5 5 5 5 5 5 5 5 5 5 5 5 5 6 6 6 6 5 5 5 5 5 5 5 5 5 4 4
3 3 3 3 3 4 4 4 4 4 4 4 4 4 4 4 4 4 4 4 4 4 4 4 4 4 4 4 4 4 5 5 5 4 4 4 4 4 4 4 4 3 3
2 2 2 2 2 2 3 3 3 3 3 3 3 3 3 3 3 3 3 3 3 3 3 3 3 3 3 3 3 3 3 4 4 3 4 4 4 4 3 3 3 3 3
1 1 1 1 1 2 2 2 2 2 2 2 2 2 2 2 2 2 2 2 2 2 2 2 2 2 2 2 2 2 2 2 2 3 3 3 3 3 3 3 3 3 2
1 1 1 1 1 1 1 1 1 1 1 1 1 1 1 1 1 1 1 0 0 0 0 1 1 1 1 1 1 1 1 1 1 1 2 2 2 2 2 2 2 2 2
0 0 0 0 0 0 -0 -0 -0 -0 -0 -0 0 0 -0 -0 -1 -1 -1 -1 -1 -1 -1 -1 -1 -1 -1 -0 -0 -0 0 0 0 0 1 1 1 1 1 1 1 1 1
0 0 -0 -0 -0 -1 -1 -1 -1 -1 -1 -1 -1 -1 -1 -2 -2 -2 -2 -2 -2 -2 -2 -2 -2 -2 -2 -1 -1 -1 -1 -1 -1 -0 -0 0 0 0 0 0 0 0 0
-1 -1 -1 -1 -1 -1 -2 -2 -2 -2 -3 -3 -3 -3 -3 -3 -3 -3 -3 -3 -3 -3 -3 -3 -3 -3 -3 -2 -2 -2 -2 -2 -1 -1 -1 -1 -1 -1 -1 -1 -1 -1 -1
-1 -2 -2 -2 -2 -2 -2 -3 -3 -3 -4 -4 -5 -5 -5 -4 -4 -5 -5 -4 -4 -4 -4 -3 -3 -3 -3 -3 -3 -3 -2 -2 -2 -2 -2 -1 -1 -1 -1 -1 -1 -1 -1
-2 -2 -3 -3 -3 -3 -3 -3 -3 -4 -4 -4 -5 -5 -5 -5 -5 -5 -5 -5 -5 -4 -4 -4 -4 -4 -4 -4 -4 -4 -3 -3 -3 -2 -2 -2 -2 -2 -2 -2 -2 -2 -2
-3 -3 -4 -4 -4 -4 -4 -4 -4 -4 -4 -4 -5 -5 -6 -5 -5 -5 -5 -5 -5 -5 -5 -5 -5 -5 -5 -5 -5 -4 -4 -3 -3 -3 -3 -3 -3 -2 -2 -2 -3 -3 -3
-4 -4 -4 -5 -5 -5 -5 -6 -6 -6 -5 -5 -5 -5 -6 -6 -6 -6 -6 -6 -5 -5 -5 -6 -6 -6 -5 -5 -5 -5 -4 -4 -4 -3 -3 -3 -3 -3 -3 -3 -3 -3 -3
-4 -4 -5 -5 -5 -6 -6 -6 -6 -7 -7 -7 -6 -6 -6 -6 -6 -6 -6 -7 -7 -6 -6 -6 -6 -6 -6 -6 -6 -5 -5 -5 -4 -4 -4 -4 -3 -3 -3 -3 -3 -3 -3
-4 -5 -5 -6 -6 -6 -6 -7 -7 -7 -7 -7 -7 -7 -7 -7 -7 -7 -7 -7 -7 -7 -7 -7 -7 -7 -6 -6 -6 -6 -6 -5 -5 -5 -4 -4 -4 -4 -4 -3 -3 -3 -3
-5 -5 -6 -6 -6 -7 -7 -7 -8 -8 -8 -8 -8 -8 -8 -8 -8 -8 -8 -8 -8 -8 -8 -7 -7 -7 -7 -7 -6 -6 -6 -5 -5 -5 -5 -4 -4 -4 -4 -4 -4 -4 -4
-6 -6 -6 -7 -7 -7 -8 -8 -8 -8 -8 -8 -8 -8 -8 -8 -8 -8 -8 -8 -8 -8 -8 -8 -8 -7 -7 -7 -7 -6 -6 -6 -5 -5 -5 -5 -5 -4 -4 -4 -4 -4 -4
-6 -7 -7 -7 -8 -8 -8 -8 -9 -9 -9 -9 -9 -9 -9 -9 -9 -9 -9 -8 -8 -8 -8 -8 -8 -8 -7 -7 -7 -6 -6 -6 -6 -6 -5 -5 -5 -5 -5 -4 -4 -4 -4
-7 -7 -8 -8 -8 -8 -9 -9 -9 -9 -9 -9 -9 -9 -9 -9 -9 -9 -9 -9 -8 -8 -8 -8 -8 -8 -7 -7 -7 -6 -6 -6 -6 -6 -5 -5 -5 -5 -5 -5 -5 -5 -5
-8 -8 -8 -8 -9 -9 -9 -9 -9 -10 -10 -10 -10 -10 -10 -9 -9 -9 -9 -9 -9 -8 -8 -8 -8 -8 -7 -7 -7 -7 -6 -6 -6 -6 -6 -5 -5 -5 -5 -5 -5 -5 -5
-8 -8 -9 -9 -9 -10 -10 -10 -10 -10 -10 -10 -10 -10 -10 -10 -10 -9 -9 -9 -9 -9 -8 -8 -8 -8 -7 -7 -7 -7 -6 -6 -6 -6 -6 -6 -5 -5 -5 -5 -5 -5 -5
Wind_Speed
9 7 7 7 6 6 5 4 3 3 2 1 2 4 5 5 5 6 6 6 7 7 6 7 8 6 6 5 5 5 6 5 7 3 2 3 6 7 7 9 10 9 9
9 9 10 10 9 8 7 6 5 4 3 2 1 1 3 4 5 5 6 6 7 8 7 7 8 6 7 6 6 7 7 6 6 5 3 4 5 7 6 6 6 9 9
11 11 11 11 10 9 8 7 6 6 6 5 3 1 0 2 3 4 5 6 7 8 8 8 7 7 8 6 7 7 6 5 4 4 4 3 3 4 4 4 4 4 6
13 13 12 11 10 10 9 9 9 8 7 6 5 3 2 1 1 2 3 4 5 6 6 7 7 8 9 8 7 8 6 6 5 5 4 3 3 3 4 5 5 5 5
13 14 13 12 12 12 12 12 11 10 9 7 7 6 5 3 2 1 2 3 4 5 5 5 6 8 9 8 7 7 7 7 6 6 5 4 4 4 6 5 6 4 4
13 13 12 12 12 12 11 11 11 10 9 9 8 7 7 5 7 6 3 3 4 4 5 5 5 7 8 10 11 10 10 9 9 7 6 8 8 7 6 6 6 5 5
12 11 11 11 11 10 10 10 10 9 9 9 8 7 7 8 11 10 7 3 3 4 5 5 4 5 6 6 8 9 10 13 12 9 9 9 8 8 9 8 7 6 5
11 11 10 10 10 10 10 10 9 8 8 7 8 7 7 8 12 12 11 5 3 3 4 5 6 6 6 6 5 6 6 7 8 8 8 8 7 8 10 9 7 5 2
10 10 9 9 8 9 9 8 7 7 7 6 6 7 7 8 12 13 11 4 4 4 4 4 5 6 8 8 6 6 6 6 7 8 8 8 10 12 11 7 7 5 4
9 8 8 8 8 8 8 7 6 6 6 6 7 6 7 7 11 13 11 4 5 5 5 5 7 8 9 9 6 6 7 6 4 4 5 6 7 10 14 10 9 7 4
7 6 7 7 7 7 7 6 7 7 7 7 6 6 6 8 10 12 12 5 5 5 5 5 5 10 11 11 9 7 9 7 4 5 4 4 4 5 6 6 7 6 6
6 7 7 8 7 7 6 6 6 6 7 7 7 7 5 6 9 11 13 11 9 6 6 5 6 11 12 12 10 10 11 8 4 4 5 6 6 6 5 5 5 4 3
7 7 7 7 7 7 6 7 6 6 6 6 6 7 7 6 7 13 13 13 12 8 7 11 12 13 12 9 10 12 9 5 5 6 7 7 5 5 5 4 4 4 5
7 7 7 7 8 7 6 5 5 6 6 6 7 7 8 7 6 6 6 7 9 8 7 9 13 12 10 9 8 7 5 5 6 7 6 4 4 5 5 5 4 5 4
6 6 7 6 7 7 6 5 6 5 6 7 6 7 8 8 10 15 11 7 6 7 8 6 5 5 5 5 5 5 5 5 6 5 5 5 5 6 5 5 5 5 5
5 5 5 5 5 6 6 7 9 9 13 13 13 12 10 13 18 18 17 16 15 14 9 5 5 5 6 6 6 6 5 5 5 5 5 6 6 7 6 6 5 6 6
4 5 4 5 5 6 6 7 8 10 12 12 14 15 15 17 18 18 17 16 15 13 6 5 6 6 6 6 6 6 6 6 5 5 6 6 6 7 7 7 7 6 6
4 6 5 5 5 6 6 7 7 9 10 9 11 15 17 17 17 17 16 13 8 7 5 6 7 7 7 6 7 7 6 6 5 5 5 6 6 7 8 8 8 8 7
4 4 5 5 5 6 6 7 7 8 8 9 9 10 15 16 16 15 13 6 7 8 7 7 7 7 7 7 7 7 7 6 6 5 5 6 6 7 7 8 8 11 9
4 8 8 6 6 6 6 7 7 8 8 8 9 9 9 10 8 8 8 6 7 7 8 8 7 8 7 7 7 7 6 6 6 5 5 5 6 7 8 9 9 9 8
4 6 9 7 6 6 7 7 7 8 8 8 8 11 15 9 8 9 8 7 7 8 8 8 8 8 7 7 6 6 7 6 5 5 5 5 5 6 6 7 8 9 8
4 4 5 6 6 6 7 6 7 8 9 10 9 10 15 8 7 8 8 8 7 7 7 8 8 7 7 7 6 6 6 5 5 4 4 4 5 6 6 7 8 8 9
4 5 5 6 6 9 8 7 7 8 8 9 9 9 9 7 8 8 8 8 8 8 7 7 8 7 7 6 6 6 6 5 5 5 4 4 5 5 6 7 9 10 10
4 5 5 6 6 6 7 7 7 8 9 9 9 8 8 8 8 9 9 8 8 8 7 7 7 9 10 8 6 6 5 5 5 5 6 5 5 5 6 7 8 10 10
3 5 5 5 6 6 7 7 8 8 9 9 9 9 9 9 9 8 8 8 9 9 10 9 7 8 9 9 8 7 8 9 7 4 4 4 5 6 7 7 8 9 9
4 5 5 5 5 6 7 7 8 8 8 8 8 8 8 8 8 8 8 8 8 9 9 8 9 10 11 9 9 9 9 8 7 5 3 3 4 5 6 6 8 9 10
Wind_Direction
36 44 48 54 62 67 68 69 77 78 85 134 161 183 184 184 187 194 202 200 206 213 211 215 221 215 216 213 209 212 218 217 238 230 196 182 182 189 185 190 191 192 198
36 46 49 46 46 53 51 47 48 49 49 59 100 164 184 186 194 201 211 212 213 218 219 219 225 220 221 219 215 219 221 216 221 227 204 196 200 193 185 189 191 196 199
39 48 50 45 43 41 38 38 44 48 45 43 47 51 117 195 200 209 215 220 222 224 221 221 225 219 227 228 224 225 223 219 217 218 212 199 195 176 175 190 192 195 200
39 45 45 39 36 34 37 38 37 38 39 35 32 30 26 18 210 217 220 228 234 235 230 227 226 224 230 228 227 226 220 216 212 214 213 198 194 176 173 190 202 203 201
39 41 38 35 35 35 35 34 34 33 32 29 29 24 19 13 349 298 238 236 237 241 241 237 237 239 240 234 231 225 217 220 215 218 217 205 200 186 200 192 204 193 207
37 35 32 33 34 32 31 30 32 31 28 28 28 23 20 12 356 352 323 257 248 246 253 256 255 247 249 251 248 237 225 220 219 219 222 220 215 207 195 190 185 182 214
35 31 29 29 31 28 27 28 27 23 24 23 19 18 13 3 2 359 345 329 278 257 253 256 267 262 259 249 252 247 238 234 226 220 225 226 216 203 190 193 195 194 201
30 26 23 24 25 21 24 23 17 15 17 15 10 6 3 359 359 356 353 348 310 289 273 258 254 255 251 249 246 246 247 244 237 230 228 227 216 199 197 196 190 173 117
24 18 15 17 20 19 19 12 8 9 10 6 1 359 357 350 355 355 354 341 325 313 299 280 266 254 260 261 245 242 254 259 254 243 240 233 219 204 187 167 165 172 192
10 5 6 12 15 13 8 3 0 3 359 357 356 353 350 343 348 350 349 339 328 323 319 308 296 288 278 268 250 240 248 254 243 243 240 234 220 208 196 189 183 184 173
352 359 5 7 6 3 1 359 355 355 353 352 346 342 341 340 342 343 341 338 320 315 312 308 301 298 291 283 275 256 252 254 235 223 225 220 206 204 198 192 187 185 182
355 3 2 360 0 0 357 353 351 351 349 345 342 338 335 333 336 333 332 329 325 312 304 301 297 299 297 293 287 269 264 260 232 221 222 219 211 208 199 184 178 171 163
1 0 354 353 354 354 353 349 348 350 348 341 339 333 329 326 326 329 325 322 321 316 302 301 301 298 297 290 279 275 270 249 230 229 227 226 216 196 168 149 135 121 93
358 353 351 351 348 347 347 343 341 338 335 333 330 325 321 318 316 316 311 309 312 312 304 299 300 298 294 281 276 275 260 242 239 237 231 219 187 177 179 171 171 161 144
351 347 346 344 338 335 333 327 325 310 315 320 316 312 314 314 313 317 317 312 307 300 306 300 295 294 289 278 270 263 253 243 244 234 219 210 200 194 188 174 168 164 169
345 341 336 332 329 328 327 326 325 324 323 323 321 317 309 309 314 317 316 315 313 311 310 298 293 289 286 282 277 274 263 248 243 231 219 213 207 199 188 178 175 177 178
331 326 323 325 326 325 326 326 325 325 325 325 326 325 322 321 321 320 319 317 314 314 304 293 289 286 284 282 277 273 270 258 241 225 219 214 205 198 190 186 185 182 180
320 321 324 315 316 318 319 318 317 320 322 322 325 327 326 326 326 325 324 324 317 315 297 294 292 290 286 281 279 280 276 266 247 232 224 217 207 199 195 191 188 185 179
321 317 317 315 316 316 316 317 316 316 316 317 320 324 328 327 327 328 330 323 312 310 306 301 296 292 289 284 279 276 274 268 252 236 225 217 211 203 200 195 189 187 179
321 327 330 324 321 321 320 320 320 319 318 318 319 320 323 324 326 326 326 316 310 307 306 303 300 294 290 286 281 275 271 267 254 240 228 220 213 206 201 194 187 184 185
319 323 330 327 319 318 317 316 316 316 315 314 312 315 322 323 320 318 318 315 312 309 307 304 301 299 293 288 282 275 268 262 254 243 233 224 215 207 199 194 187 182 177
319 318 318 316 316 314 312 311 312 312 313 313 313 314 321 321 314 313 313 313 310 305 302 302 300 297 295 291 284 280 270 259 253 243 236 226 216 203 193 187 181 176 171
319 316 315 315 314 315 318 314 311 310 311 312 314 316 318 318 317 316 316 315 313 310 307 303 301 300 299 297 287 279 271 260 250 241 237 231 217 203 192 187 180 173 172
313 312 312 313 314 312 311 311 311 312 313 313 314 315 317 318 318 317 318 315 313 312 310 307 302 302 304 304 296 288 277 271 259 243 232 226 214 203 192 185 182 177 174
315 312 310 308 309 310 310 310 310 311 313 314 314 314 315 315 314 314 315 314 314 314 315 314 310 309 308 307 301 294 292 287 277 264 240 224 207 198 189 182 179 172 170
309 307 305 303 304 305 307 308 309 311 311 310 309 308 309 310 310 311 314 315 319 319 319 319 317 317 315 312 306 303 298 293 285 273 254 211 197 192 183 180 173 170 167
Height
1413 1414 1415 1416 1418 1421 1423 1425 1427 1429 1432 1434 1436 1439 1442 1446 1449 1452 1455 1458 1461 1464 1466 1469 1471 1474 1476 1478 1479 1480 1481 1482 1481 1482 1483 1484 1484 1486 1487 1488 1489 1490 1490
1415 1415 1416 1417 1419 1420 1422 1424 1426 1427 1430 1432 1434 1436 1439 1441 1444 1447 1449 1452 1455 1457 1460 1462 1464 1467 1468 1470 1471 1472 1473 1474 1475 1474 1475 1476 1477 1478 1480 1481 1482 1483 1484
1418 1418 1419 1420 1421 1421 1423 1424 1425 1427 1428 1430 1432 1434 1436 1438 1440 1442 1445 1447 1449 1452 1454 1456 1458 1459 1461 1462 1463 1464 1466 1467 1467 1467 1467 1468 1469 1470 1472 1473 1475 1476 1477
1423 1422 1422 1423 1423 1423 1424 1424 1425 1427 1428 1429 1430 1431 1433 1434 1436 1438 1439 1441 1443 1445 1447 1449 1450 1452 1453 1454 1455 1456 1457 1458 1459 1460 1460 1460 1461 1462 1464 1465 1467 1468 1469
1428 1426 1426 1426 1426 1426 1426 1426 1426 1427 1428 1429 1429 1429 1430 1431 1432 1433 1434 1436 1437 1439 1440 1441 1443 1444 1445 1447 1447 1448 1449 1449 1450 1451 1451 1452 1453 1454 1455 1457 1459 1461 1462
1432 1430 1430 1429 1428 1428 1428 1428 1427 1427 1427 1427 1428 1428 1428 1428 1428 1429 1429 1431 1431 1432 1433 1434 1436 1437 1438 1439 1439 1440 1441 1441 1442 1443 1443 1443 1444 1446 1448 1450 1452 1453 1454
1436 1435 1433 1432 1432 1431 1430 1429 1428 1427 1427 1426 1426 1426 1426 1426 1425 1425 1424 1425 1425 1426 1426 1427 1428 1429 1430 1430 1430 1431 1432 1433 1434 1435 1435 1436 1437 1439 1441 1442 1443 1444 1446
1439 1438 1436 1435 1433 1432 1431 1429 1428 1427 1426 1425 1425 1424 1423 1423 1422 1421 1420 1420 1420 1420 1420 1420 1421 1422 1422 1422 1422 1422 1422 1424 1425 1426 1427 1428 1430 1432 1433 1435 1436 1438 1440
1442 1440 1438 1437 1435 1433 1431 1430 1428 1427 1425 1424 1423 1422 1421 1419 1419 1418 1416 1415 1414 1414 1414 1414 1414 1414 1414 1414 1414 1414 1414 1415 1416 1417 1418 1419 1421 1423 1425 1427 1428 1430 1432
1444 1442 1440 1438 1436 1434 1432 1430 1428 1426 1424 1423 1421 1420 1418 1417 1415 1414 1413 1411 1410 1409 1408 1408 1408 1408 1407 1407 1407 1406 1406 1407 1408 1408 1410 1411 1413 1415 1417 1418 1421 1423 1424
1445 1443 1441 1438 1436 1434 1432 1430 1427 1425 1423 1421 1419 1418 1416 1414 1412 1411 1410 1408 1406 1404 1403 1402 1402 1401 1400 1400 1400 1399 1399 1400 1400 1401 1402 1403 1405 1407 1409 1411 1413 1415 1417
1446 1443 1441 1438 1436 1433 1431 1428 1426 1423 1421 1418 1416 1414 1413 1411 1409 1407 1406 1405 1403 1401 1399 1398 1396 1395 1394 1394 1393 1393 1393 1394 1394 1394 1395 1396 1398 1400 1401 1404 1406 1408 1411
1445 1443 1440 1438 1435 1433 1430 1427 1424 1422 1419 1416 1414 1411 1409 1407 1406 1404 1402 1400 1398 1396 1394 1393 1391 1390 1389 1388 1388 1387 1387 1387 1386 1387 1387 1389 1391 1393 1395 1397 1399 1401 1404
1444 1441 1439 1436 1434 1431 1429 1426 1423 1420 1417 1414 1411 1408 1406 1403 1402 1399 1397 1395 1393 1391 1389 1387 1386 1385 1384 1383 1382 1381 1381 1381 1380 1381 1381 1382 1384 1385 1387 1389 1392 1394 1397
1442 1440 1437 1434 1432 1429 1426 1424 1421 1418 1416 1412 1409 1406 1403 1399 1398 1396 1394 1391 1389 1387 1384 1382 1381 1379 1378 1377 1376 1375 1375 1375 1374 1374 1375 1376 1377 1379 1381 1383 1386 1388 1391
1440 1437 1435 1432 1429 1426 1423 1421 1418 1416 1413 1410 1407 1404 1400 1397 1394 1391 1389 1387 1384 1383 1380 1378 1376 1374 1373 1371 1370 1369 1369 1369 1368 1368 1368 1369 1371 1372 1374 1377 1380 1382 1385
1438 1435 1432 1430 1427 1423 1420 1417 1413 1411 1409 1406 1403 1399 1396 1393 1390 1387 1384 1382 1380 1378 1376 1373 1371 1369 1368 1366 1365 1364 1363 1363 1363 1363 1363 1364 1365 1367 1369 1371 1374 1376 1379
1436 1433 1430 1427 1424 1421 1418 1414 1411 1407 1403 1400 1398 1395 1392 1389 1386 1383 1380 1377 1375 1373 1371 1368 1366 1364 1363 1361 1360 1359 1358 1357 1357 1357 1358 1358 1359 1361 1363 1365 1368 1371 1374
1433 1430 1427 1424 1421 1418 1415 1411 1408 1405 1401 1397 1394 1391 1388 1385 1382 1379 1376 1374 1371 1368 1366 1364 1362 1360 1358 1356 1355 1353 1352 1352 1352 1352 1353 1353 1354 1356 1358 1360 1363 1366 1369
1430 1427 1424 1421 1418 1415 1411 1408 1405 1402 1398 1395 1392 1388 1385 1382 1378 1375 1373 1370 1368 1365 1362 1360 1357 1355 1353 1351 1349 1348 1347 1346 1347 1347 1347 1348 1349 1351 1353 1355 1358 1360 1363
1426 1423 1420 1417 1414 1411 1408 1405 1402 1399 1396 1392 1389 1386 1383 1380 1376 1373 1370 1367 1364 1361 1359 1356 1353 1350 1348 1346 1345 1343 1342 1342 1342 1342 1343 1343 1345 1346 1348 1350 1353 1356 1359
1422 1419 1417 1414 1411 1408 1405 1403 1400 1397 1393 1390 1386 1383 1381 1377 1374 1371 1367 1364 1361 1358 1355 1352 1349 1346 1344 1342 1340 1339 1338 1337 1337 1337 1338 1339 1340 1342 1344 1346 1348 1352 1355
1418 1416 1413 1411 1408 1405 1402 1399 1396 1393 1390 1387 1384 1380 1377 1374 1371 1368 1364 1361 1358 1355 1352 1348 1345 1342 1340 1338 1337 1336 1335 1334 1334 1334 1334 1335 1336 1337 1339 1342 1344 1347 1351
1415 1412 1410 1407 1404 1402 1399 1396 1393 1390 1387 1384 1381 1377 1374 1371 1368 1364 1361 1358 1354 1351 1348 1345 1342 1339 1337 1335 1333 1332 1331 1331 1330 1330 1331 1332 1333 1334 1336 1338 1341 1344 1347
1411 1409 1406 1403 1401 1398 1395 1392 1390 1387 1384 1380 1377 1374 1371 1368 1365 1361 1358 1354 1351 1348 1345 1342 1339 1336 1334 1332 1330 1329 1328 1328 1327 1328 1328 1329 1330 1331 1333 1335 1338 1341 1344
1407 1405 1403 1400 1397 1395 1392 1389 1386 1383 1380 1377 1374 1371 1368 1365 1362 1358 1355 1351 1348 1345 1342 1339 1336 1334 1331 1329 1327 1326 1326 1325 1325 1325 1325 1326 1327 1328 1330 1333 1335 1338 1342